Location: ??????
(41.3747°N, 22.5491°E)
Time: 13:59:46
(UTC+00:00)

Cosmos 1782 - Pass Details

Date: 01 December 2020
Orbit: 537 x 550 km, 82.5° (Epoch: 20 January)

Event Time Altitude Azimuth Distance (km) Brightness Sun altitude
Rises 16:17:52 0° 190° (S) 2,681 6.7 -14.1°
Reaches altitude 10° 16:20:00 10° 192° (SSW) 1,796 5.8 -14.5°
Maximum altitude 16:23:57 75° 278° (W) 566 2.9 -15.2°
Drops below altitude 10° 16:27:57 10° 4° (N) 1,819 5.3 -15.9°
Enters shadow 16:29:38 - 6° (N) 2,514 6.0 -16.2°
